Flag for Germany Weather past 2 weeks in Leer, Lower Saxony, Germany

Now
57 °F

Overcast.


Feels Like: 56 °F
Forecast: 45 / 53 °F
Wind: 5 mph from Southwest

Location: Emden-Koenigspolder

Current Time: Apr 25, 2015 at 6:47:17 PM

Latest Report: Apr 25, 2015 at 6:00 PM


Visibility: 6 mi

Pressure: 29.67 "Hg

Humidity: 82%

Dew point: 51 °F

Location of LeerLocation

Historic Weather in Leer — Graph

°F

Leer temperature yesterday

Maximum temperature yesterday: 64 °F (at 4:00 PM)
Minimum temperature yesterday: 40 °F (at 7:00 AM)
Average temperature yesterday: 50 °F

Past Weeks' High & Low Weather Summary

 TemperatureHumidityPressure
High65 °F (Apr 10, 6:00 PM)100% (Apr 20, 7:00 AM)30.48 "Hg (Apr 20, 7:00 AM)
Low36 °F (Apr 20, 6:00 AM)39% (Apr 12, 6:00 PM)29.67 "Hg (Apr 25, 6:00 PM)
Average48 °F77%30.16 "Hg
* Reported Apr 10 6:00 PM — Apr 25 6:00 PM, Leer, Weather by CustomWeather, © 2015

Note: Actual official high and low records may vary slightly from our data, if they occured in-between our weather recording intervals... More about our weather records

Advertising

Leer weather history for previous 24 hours

 ConditionsComfort  
Time TempWeatherWind HumidityBarometerVisibility
6:00 PM
Sat, Apr 25
57 °FOvercast.5 mph82%29.67 "Hg6 mi
4:00 PM56 °FLight rain. Low clouds.6 mph84%29.68 "Hg7 mi
3:00 PM56 °FOvercast.7 mph84%29.68 "Hg7 mi
2:00 PM54 °FLight rain. Low clouds.6 mph91%29.69 "Hg7 mi
1:00 PM53 °FLight freezing rain. Low clouds.7 mph93%29.70 "Hg4 mi
12:00 PM53 °FLight rain. Low clouds.5 mph94%29.70 "Hg2 mi
10:00 AM52 °FLight rain. Low clouds.5 mph88%29.71 "Hg3 mi
9:00 AM52 °FLight rain. Overcast.6 mph85%29.71 "Hg4 mi
8:00 AM53 °FOvercast.6 mph83%29.70 "Hg5 mi
7:00 AM52 °FFog.3 mph85%29.70 "Hg4 mi
6:00 AM52 °FFog.5 mph83%29.70 "Hg4 mi
4:00 AM53 °FOvercast.3 mph74%29.71 "Hg4 mi
3:00 AM54 °FOvercast.2 mph62%29.72 "Hg6 mi
1:00 AM53 °FOvercast.2 mph76%29.74 "Hg3 mi
12:00 AM51 °FFog.2 mph87%29.75 "Hg3 mi
10:00 PM
Fri, Apr 24
47 °FFog.1 mph95%29.78 "Hg3 mi
9:00 PM53 °FOvercast.2 mph78%29.78 "Hg7 mi
8:00 PM57 °FPartly sunny.2 mph69%29.79 "Hg5 mi
7:00 PM60 °FSunny.5 mph61%29.79 "Hg5 mi
6:00 PM63 °FSunny.5 mph58%29.80 "Hg6 mi
Weather by CustomWeather, © 2015

See weather overviewHow to use our weather pages